Location: Oshawa
(43.9000°N, 78.8670°W)
Time: 20:43:57
(UTC-05:00)

CARTOSAT-1 - Pass Details

Date: 16 August 2017
Orbit: 618 x 619 km, 97.8° (Epoch: 24 November)

Event Time Altitude Azimuth Distance (km) Brightness Sun altitude
Exits shadow 23:20:10 63° 320° (NW) 692 3.9 -26.6°
Drops below altitude 10° 23:23:54 10° 344° (NNW) 1,994 7.1 -26.9°
Sets 23:26:06 0° 346° (NNW) 2,904 8.1 -27.2°
